Weather reports worldwide

Advertisment
Mühldorf, Germany (10875): temperature & dewpoint: 07.07.2020 06:00:00 - 13.07.2020 06:00:00 (CEST)Mühldorf, Germany (10875): temperature 5cm & temperature -5cm: 07.07.2020 06:00:00 - 13.07.2020 06:00:00 (CEST)Mühldorf, Germany (10875): temperature -20cm & temperature -100cm: 07.07.2020 06:00:00 - 13.07.2020 06:00:00 (CEST)Mühldorf, Germany (10875): wind speed & gusts: 07.07.2020 06:00:00 - 13.07.2020 06:00:00 (CEST)Mühldorf, Germany (10875): wind direction: 07.07.2020 06:00:00 - 13.07.2020 06:00:00 (CEST)Mühldorf, Germany (10875): reduced air pressure: 07.07.2020 06:00:00 - 13.07.2020 06:00:00 (CEST)Mühldorf, Germany (10875): visibility: 07.07.2020 06:00:00 - 13.07.2020 06:00:00 (CEST)Mühldorf, Germany (10875): sunshine duration: 07.07.2020 06:00:00 - 13.07.2020 06:00:00 (CEST)Mühldorf, Germany (10875): precipitation: 07.07.2020 06:00:00 - 13.07.2020 06:00:00 (CEST)
Date & Time tt [°C] td [°C] tt 5cm [°C] tt -5cm [°C] tt -20cm [°C] tt -100cm [°C] ff [km/h] ff [kn] fx [km/h] fx [kn] dd ppp [hPa] vv [km] sd [min] rr [mm]
13.07.2020 06:00:00 7,3 6,6 5,9 11,4 19,6 17,3 3 2 5 3 W 1024,9 24 0 0,0
13.07.2020 05:00:00 7,9 7,3 5,8 11,9 19,9 17,3 2 1 3 2 NNW 1024,9 28 0 0,0
13.07.2020 04:00:00 8,2 7,8 6,5 12,5 20,2 17,3 0 0 3 2 N 1025,2 14 0 0,0
13.07.2020 03:00:00 8,7 8,2 7,0 13,2 20,4 17,3 0 0 5 3 N 1025,5 22 0 0,0
13.07.2020 02:00:00 9,5 8,6 7,4 13,9 20,7 17,3 0 0 4 2 N 1025,3 41 0 0,0
13.07.2020 01:00:00 10,3 9,4 8,3 14,8 21,0 17,2 3 2 7 4 WNW 1025,5 41 0 0,0
13.07.2020 00:00:00 11,4 9,8 9,2 15,8 21,2 17,2 3 1 8 4 NE 1025,4 55 0 0,0
12.07.2020 23:00:00 13,4 9,8 11,3 16,9 21,3 17,2 5 3 9 5 E 1025,4 57 0 0,0
12.07.2020 22:00:00 15,4 9,6 12,3 18,1 21,4 17,2 5 3 11 6 E 1024,9 56 0 0,0
12.07.2020 21:00:00 17,0 9,0 14,8 19,8 21,4 17,2 8 5 11 6 NE 1024,3 63 45 0,0
12.07.2020 20:00:00 19,3 7,5 19,1 21,7 21,3 17,2 8 5 19 10 NE 1024,1 66 60 0,0
12.07.2020 19:00:00 20,3 7,5 21,2 23,6 21,1 17,2 15 8 20 11 ENE 1024,0 74 47 0,0
12.07.2020 18:00:00 19,7 7,5 19,7 24,9 20,8 17,2 14 7 26 14 E 1024,2 59 44 0,0
12.07.2020 17:00:00 20,1 7,0 20,7 26,5 20,5 17,2 13 7 22 12 ENE 1024,3 75 37 0,0
12.07.2020 16:00:00 21,6 5,5 26,4 27,9 20,1 17,2 5 3 21 11 E 1024,1 58 60 0,0
12.07.2020 15:00:00 20,8 6,1 24,8 27,3 19,8 17,2 5 3 19 10 ESE 1024,5 69 60 0,0
12.07.2020 14:00:00 20,1 8,0 23,9 26,1 19,5 17,2 10 6 23 13 E 1024,9 56 43 0,0
12.07.2020 13:00:00 18,3 8,9 20,7 26,0 19,2 17,2 9 5 20 11 ENE 1025,6 62 54 0,0
12.07.2020 12:00:00 18,6 9,3 23,3 23,9 19,1 17,2 7 4 19 10 E 1025,4 52 58 0,0
12.07.2020 11:00:00 17,5 11,7 21,6 21,3 19,1 17,2 8 4 14 8 ESE 1025,7 53 60 0,0
12.07.2020 10:00:00 14,8 11,5 17,1 17,9 19,2 17,2 7 4 14 7 ESE 1026,3 30 15 0,0
12.07.2020 09:00:00 12,8 11,7 14,6 16,3 19,3 17,2 9 5 15 8 ENE 1026,5 13 0 0,0
12.07.2020 08:00:00 12,2 11,7 13,3 15,4 19,4 17,2 8 4 14 7 E 1026,2 4,8 0 0,0
12.07.2020 07:00:00 12,1 11,7 12,7 15,2 19,5 17,2 7 4 11 6 ENE 1026,0 2,2 0 0,0
12.07.2020 06:00:00 12,2 11,9 12,5 15,2 19,7 17,2 6 3 11 6 E 1025,3 1,4 0 0,0
12.07.2020 05:00:00 12,3 12,0 12,7 15,3 19,8 17,2 6 3 10 5 E 1025,0 1,1 0 0,0
12.07.2020 04:00:00 12,5 12,4 12,7 15,3 20,0 17,2 4 2 8 4 E 1024,6 0,3 0 0,0
12.07.2020 03:00:00 12,5 12,3 12,8 15,2 20,2 17,1 6 3 8 4 ENE 1025,0 0,1 0 0,0
12.07.2020 02:00:00 12,6 12,3 12,7 15,0 20,4 17,1 2 1 7 4 N 1024,9 9 0 0,0
12.07.2020 01:00:00 11,7 11,3 11,2 15,1 20,6 17,1 3 2 7 4 W 1025,5 9 0 0,0
12.07.2020 00:00:00 12,0 11,7 11,5 15,5 20,8 17,1 8 4 13 7 ENE 1025,5 14 0 0,0
11.07.2020 23:00:00 12,0 11,7 10,9 16,4 20,9 17,1 0 0 7 4 N 1025,0 1,9 0 0,0
11.07.2020 22:00:00 13,3 12,8 11,9 17,7 20,9 17,1 3 2 5 3 N 1024,1 1,4 0 0,0
11.07.2020 21:00:00 14,7 13,0 14,7 18,8 20,9 17,1 2 1 10 5 W 1023,5 40 16 0,1
11.07.2020 20:00:00 14,1 11,1 13,4 19,9 20,9 17,1 11 6 41 22 N 1023,6 13 1 1,9
11.07.2020 19:00:00 18,5 11,2 21,3 22,0 20,8 17,1 5 3 10 5 NNE 1021,5 66 36 0,0
11.07.2020 18:00:00 17,7 12,7 18,4 21,0 20,8 17,1 6 3 13 7 W 1022,1 71 0 0,0
11.07.2020 17:00:00 17,5 12,9 18,5 20,5 20,8 17,1 3 2 11 6 NNE 1021,8 65 0 0,0
11.07.2020 16:00:00 17,1 13,2 19,0 20,2 20,8 17,1 8 4 18 10 N 1021,6 57 0 0,0
11.07.2020 15:00:00 16,9 13,4 19,4 19,9 20,8 17,1 8 4 16 9 NNW 1021,8 50 0 0,0
11.07.2020 14:00:00 15,6 13,7 16,8 18,9 20,9 17,1 8 5 14 8 NNE 1021,7 26 0 0,4
11.07.2020 13:00:00 15,8 14,1 16,3 18,9 21,1 17,1 4 2 10 6 N 1021,1 22 0 0,8
11.07.2020 12:00:00 15,6 14,0 15,8 18,1 21,3 17,1 7 4 15 8 WNW 1021,0 29 0 0,8
11.07.2020 11:00:00 15,5 14,4 15,8 17,9 21,6 17,0 9 5 11 6 WNW 1020,5 21 0 3,2
11.07.2020 10:00:00 15,6 14,3 15,8 18,0 21,8 17,0 4 2 11 6 SSW 1019,5 9 0 0,8
11.07.2020 09:00:00 15,5 14,9 15,6 17,7 22,1 17,0 5 3 11 6 SSE 1019,3 9 0 3,6
11.07.2020 08:00:00 15,4 14,8 15,4 17,9 22,4 16,9 8 4 13 7 W 1019,2 10 0 2,8
11.07.2020 07:00:00 15,4 14,7 15,4 18,2 22,7 16,9 5 3 9 5 W 1018,4 15 0 1,0
11.07.2020 06:00:00 15,3 14,6 15,2 18,4 23,0 16,9 6 3 13 7 WSW 1018,1 13 0 1,1
11.07.2020 05:00:00 15,6 14,5 15,4 18,7 23,3 16,9 8 4 19 10 WNW 1017,7 15 0 3,5
11.07.2020 04:00:00 16,2 15,5 16,2 19,6 23,5 16,9 10 5 12 7 W 1017,3 17 0 0,1
11.07.2020 03:00:00 16,4 15,5 16,4 20,0 23,8 16,9 3 1 11 6 WSW 1016,9 26 0 0,3
11.07.2020 02:00:00 16,5 15,0 16,3 20,5 24,1 16,8 6 3 19 11 NNW 1017,3 26 0 0,4
11.07.2020 01:00:00 17,9 16,6 17,9 21,3 24,4 16,8 4 2 13 7 N 1016,7 29 0 0,9
11.07.2020 00:00:00 18,5 17,9 18,6 21,9 24,7 16,8 4 2 7 4 SSW 1016,4 19 0 0,0
10.07.2020 23:00:00 18,6 18,0 18,7 22,1 25,0 16,8 3 2 10 5 S 1016,1 11 0 1,6
10.07.2020 22:00:00 18,7 18,0 18,6 22,5 25,2 16,8 5 3 18 10 NNW 1015,8 6 0 5,3
10.07.2020 21:00:00 18,9 17,9 18,9 24,1 25,2 16,8 7 4 28 15 WNW 1014,8 32 0 2,1
10.07.2020 20:00:00 18,8 17,2 18,4 26,7 25,1 16,8 10 5 55 30 NW 1013,4 16 0 5,0
10.07.2020 19:00:00 25,1 16,2 24,2 30,8 24,9 16,8 12 6 31 17 W 1010,0 25 0 0,0
10.07.2020 18:00:00 29,0 12,7 28,1 33,2 24,5 16,8 26 14 37 20 W 1009,0 44 47 0,0
10.07.2020 17:00:00 30,5 13,6 33,0 35,5 24,0 16,8 19 10 32 18 WNW 1008,7 60 60 0,0
10.07.2020 16:00:00 30,5 13,6 34,9 36,0 23,5 16,8 17 9 29 16 W 1009,2 75 60 0,0
10.07.2020 15:00:00 30,3 13,6 34,2 36,0 23,0 16,8 20 11 35 19 W 1009,4 62 60 0,0
10.07.2020 14:00:00 30,7 13,9 37,3 35,4 22,5 16,8 15 8 24 13 WNW 1009,4 75 56 0,0
10.07.2020 13:00:00 29,9 14,4 35,4 34,0 22,1 16,8 11 6 24 13 WSW 1010,0 62 60 0,0
10.07.2020 12:00:00 29,2 13,5 34,3 32,0 21,9 16,8 13 7 22 12 W 1010,4 75 60 0,0
10.07.2020 11:00:00 27,9 17,0 32,6 29,0 21,8 16,8 6 3 11 6 S 1010,8 67 60 0,0
10.07.2020 10:00:00 24,8 16,4 28,3 25,4 21,8 16,8 6 3 10 5 S 1011,7 61 60 0,0
10.07.2020 09:00:00 21,5 14,5 24,7 22,3 22,0 16,8 6 3 10 6 S 1012,7 47 60 0,0
10.07.2020 08:00:00 19,7 14,5 21,7 19,9 22,2 16,8 5 3 8 4 SE 1013,2 51 60 0,0
10.07.2020 07:00:00 17,1 14,5 17,9 18,0 22,5 16,8 3 2 9 5 ESE 1014,0 38 51 0,0
10.07.2020 06:00:00 12,9 11,7 10,7 17,7 22,8 16,8 4 2 5 3 ENE 1014,7 31 0 0,0
10.07.2020 05:00:00 12,6 11,0 10,4 18,4 23,1 16,8 4 2 8 4 E 1014,6 35 0 0,0
10.07.2020 04:00:00 15,1 14,2 13,5 19,1 23,4 16,8 7 4 9 5 E 1014,2 29 0 0,0
10.07.2020 03:00:00 14,7 13,6 12,5 19,8 23,7 16,8 6 4 9 5 E 1014,7 30 0 0,0
10.07.2020 02:00:00 15,6 14,4 12,4 20,7 24,0 16,8 5 3 6 3 E 1014,7 40 0 0,0
10.07.2020 01:00:00 15,3 14,6 12,5 21,8 24,2 16,7 3 2 5 3 E 1015,0 44 0 0,0
10.07.2020 00:00:00 15,9 13,9 14,2 23,1 24,4 16,7 3 2 5 3 W 1014,9 52 0 0,0
09.07.2020 23:00:00 17,4 14,8 14,7 24,7 24,4 16,7 0 0 4 2 N 1014,5 42 0 0,0
09.07.2020 22:00:00 18,7 15,2 16,0 26,7 24,4 16,7 4 2 5 3 ENE 1014,1 19 0 0,0
09.07.2020 21:00:00 22,6 15,8 20,0 29,4 24,2 16,7 0 0 6 3 N 1013,1 69 47 0,0
09.07.2020 20:00:00 26,1 15,6 26,7 31,8 24,0 16,7 4 2 9 5 E 1012,6 53 60 0,0
09.07.2020 19:00:00 27,3 13,5 29,4 33,7 23,6 16,7 6 3 10 6 E 1012,7 67 60 0,0
09.07.2020 18:00:00 27,2 12,0 30,4 34,8 23,1 16,7 5 3 12 7 SE 1012,9 66 60 0,0
09.07.2020 17:00:00 27,3 12,6 32,0 35,4 22,7 16,7 6 3 15 8 N 1013,6 47 60 0,0
09.07.2020 16:00:00 27,0 12,1 34,7 34,8 22,2 16,7 11 6 20 11 W 1014,1 67 57 0,0
09.07.2020 15:00:00 27,0 14,1 33,9 33,2 21,8 16,7 10 6 24 13 W 1014,8 51 41 0,0
09.07.2020 14:00:00 26,3 12,5 33,9 31,6 21,5 16,7 14 8 21 12 W 1015,6 55 33 0,0
09.07.2020 13:00:00 24,6 13,2 27,7 30,1 21,1 16,7 13 7 24 13 W 1016,3 56 27 0,0
09.07.2020 12:00:00 24,6 12,0 30,7 29,2 20,9 16,7 13 7 23 13 WNW 1016,5 64 45 0,0
09.07.2020 11:00:00 23,6 12,4 27,7 27,1 20,8 16,7 9 5 18 10 WSW 1017,0 69 36 0,0
09.07.2020 10:00:00 22,6 12,9 26,5 24,6 20,8 16,7 6 4 13 7 W 1017,2 64 56 0,0
09.07.2020 09:00:00 20,3 12,2 23,0 21,6 20,9 16,7 5 3 11 6 W 1017,6 45 59 0,0
09.07.2020 08:00:00 18,7 13,1 20,8 19,1 21,1 16,7 4 2 8 4 SSE 1017,9 46 60 0,0
09.07.2020 07:00:00 15,1 12,2 17,1 17,4 21,3 16,7 0 0 4 2 N 1018,3 34 49 0,0
09.07.2020 06:00:00 12,5 11,5 10,7 17,6 21,5 16,7 0 0 2 1 N 1018,6 32 0 0,0
09.07.2020 05:00:00 13,9 12,9 11,3 18,6 21,7 16,7 0 0 3 2 N 1018,2 34 0 0,0
09.07.2020 04:00:00 15,7 12,6 15,1 19,4 21,9 16,7 2 1 6 4 E 1017,9 59 0 0,0
09.07.2020 03:00:00 15,7 12,6 15,5 19,8 22,1 16,7 5 3 6 4 E 1018,3 58 0 0,0
09.07.2020 02:00:00 16,1 12,6 15,9 20,3 22,3 16,7 4 2 9 5 E 1018,5 56 0 0,0
09.07.2020 01:00:00 16,5 12,0 16,3 20,8 22,4 16,7 5 3 8 5 E 1018,7 52 0 0,0
09.07.2020 00:00:00 17,0 12,8 16,6 21,5 22,6 16,7 4 2 9 5 E 1018,5 60 0 0,0
08.07.2020 23:00:00 17,7 12,9 17,5 22,2 22,7 16,7 4 2 10 5 N 1017,9 68 0 0,0
08.07.2020 22:00:00 18,4 12,2 18,1 23,2 22,7 16,7 5 3 11 6 NNW 1017,3 66 0 0,0
08.07.2020 21:00:00 19,4 11,6 18,9 24,4 22,6 16,7 7 4 20 11 ENE 1016,6 66 0 0,0
08.07.2020 20:00:00 20,2 12,0 18,8 26,8 22,4 16,7 14 7 22 12 NNE 1015,9 46 9 0,1
08.07.2020 19:00:00 24,0 11,4 26,6 29,1 22,1 16,7 11 6 24 13 NNW 1014,7 63 26 0,0
08.07.2020 18:00:00 24,1 11,0 26,6 30,2 21,7 16,7 12 7 31 17 NW 1014,6 58 43 0,0
08.07.2020 17:00:00 24,7 10,5 28,7 30,5 21,3 16,7 16 9 29 16 WNW 1014,6 68 30 0,0
08.07.2020 16:00:00 24,0 9,8 27,1 32,3 20,8 16,7 19 11 36 20 W 1014,7 57 53 0,0
08.07.2020 15:00:00 24,4 11,0 31,2 31,8 20,3 16,7 15 8 30 16 NW 1014,7 60 60 0,0
08.07.2020 14:00:00 23,0 9,4 27,1 30,9 19,9 16,6 16 9 31 17 WNW 1015,5 53 59 0,0
08.07.2020 13:00:00 22,5 10,6 27,7 29,1 19,6 16,6 15 8 29 16 W 1015,9 52 60 0,0
08.07.2020 12:00:00 21,6 10,0 26,5 26,6 19,4 16,6 16 9 26 14 W 1016,3 55 60 0,0
08.07.2020 11:00:00 19,6 9,4 22,6 23,7 19,4 16,6 11 6 21 11 W 1017,1 75 48 0,0
08.07.2020 10:00:00 17,8 10,5 21,8 20,2 19,4 16,6 10 6 15 8 W 1017,6 50 10 0,0
08.07.2020 09:00:00 17,0 10,1 20,7 18,1 19,6 16,6 3 2 8 4 WNW 1017,8 69 58 0,0
08.07.2020 08:00:00 14,2 9,8 16,4 15,1 19,9 16,6 2 1 5 3 S 1018,2 49 45 0,0
08.07.2020 07:00:00 10,8 8,5 11,6 13,5 20,2 16,6 4 2 6 3 ENE 1018,8 39 41 0,0
08.07.2020 06:00:00 8,4 7,4 7,1 13,2 20,5 16,6 3 2 5 3 E 1019,1 43 0 0,0
08.07.2020 05:00:00 8,0 7,5 5,6 13,7 20,8 16,6 3 2 5 3 E 1019,0 30 0 0,0
08.07.2020 04:00:00 8,3 7,7 6,0 14,4 21,1 16,6 0 0 3 1 N 1019,0 30 0 0,0
08.07.2020 03:00:00 8,5 7,6 6,4 15,2 21,5 16,6 2 1 3 2 NW 1019,5 43 0 0,0
08.07.2020 02:00:00 8,9 8,0 7,0 16,1 21,7 16,6 0 0 6 3 N 1019,5 44 0 0,0
08.07.2020 01:00:00 9,2 8,0 7,2 17,1 22,0 16,6 3 2 4 2 NNW 1019,7 51 0 0,0
08.07.2020 00:00:00 10,3 8,8 8,1 18,4 22,2 16,6 3 2 5 3 NW 1019,7 55 0 0,0
07.07.2020 23:00:00 11,4 9,1 9,0 20,0 22,3 16,6 4 2 5 3 WNW 1019,3 57 0 0,0
07.07.2020 22:00:00 12,8 10,1 10,4 22,0 22,3 16,6 0 0 4 2 N 1018,9 58 0 0,0
07.07.2020 21:00:00 16,1 9,4 15,2 24,7 22,2 16,6 2 1 6 4 NE 1018,0 62 48 0,0
07.07.2020 20:00:00 19,6 6,9 20,9 27,1 22,0 16,6 6 3 13 7 NW 1017,4 75 60 0,0
07.07.2020 19:00:00 20,0 6,6 21,9 29,0 21,6 16,6 9 5 18 10 W 1017,8 57 60 0,0
07.07.2020 18:00:00 20,5 5,8 24,2 30,5 21,2 16,6 5 3 19 10 NW 1017,8 75 56 0,0
07.07.2020 17:00:00 20,2 6,1 24,3 31,2 20,7 16,6 13 7 22 12 W 1018,4 69 48 0,0
07.07.2020 16:00:00 19,6 6,0 26,7 31,7 20,3 16,6 6 3 19 10 NE 1018,9 61 56 0,0
07.07.2020 15:00:00 19,2 5,5 25,5 30,9 19,8 16,6 14 8 25 13 WNW 1019,5 67 48 0,0
07.07.2020 14:00:00 18,3 6,8 21,7 30,1 19,4 16,6 11 6 26 14 NW 1019,9 59 47 0,0
07.07.2020 13:00:00 17,9 6,6 24,1 27,6 19,1 16,6 11 6 23 13 W 1020,5 62 39 0,0
07.07.2020 12:00:00 17,5 7,0 24,2 26,6 18,9 16,6 9 5 25 13 WNW 1020,6 75 54 0,0
07.07.2020 11:00:00 16,7 6,6 21,2 24,1 18,8 16,6 5 3 18 10 WNW 1021,3 55 60 0,0
07.07.2020 10:00:00 15,3 6,6 19,2 20,7 18,9 16,6 8 4 18 10 WNW 1021,6 75 60 0,0
07.07.2020 09:00:00 14,4 7,3 17,4 17,4 19,0 16,6 7 4 12 6 WNW 1022,1 52 60 0,0
07.07.2020 08:00:00 12,8 7,8 14,6 14,2 19,3 16,6 5 3 7 4 W 1022,5 47 59 0,0
07.07.2020 07:00:00 9,2 7,2 8,7 12,3 19,6 16,6 3 2 4 2 W 1023,3 39 11 0,0
07.07.2020 06:00:00 8,3 6,8 6,2 12,3 19,9 16,6 1 1 6 3 NW 1023,2 40 0 0,0

tt = temperature
td = dewpoint
tt 5cm = temperature 5cm
tt -5cm = temperature -5cm
tt -20cm = temperature -20cm
tt -100cm = temperature -100cm
ff = wind speed
fx = gusts
dd = wind direction
ppp = reduced air pressure
vv = visibility
sd = sunshine duration
rr = precipitation

Next stations